DW9579 Weather Reports


Display with metric or nautical units.
time (UTC)temp
F
wind
direction
speed
MPH
gust
MPH
rain 1hr
in
rain 24hr
in
rain mn
in
humidity
%
barometer
mb
20260507024938 58 290 8.0 16.0 0.00 0.00 0.00 76 1017.9
20260507023937 58 286 10.0 19.0 0.00 0.00 0.00 76 1017.8
20260507022935 59 285 12.0 21.0 0.00 0.00 0.00 76 1017.8
20260507021940 59 302 11.0 18.0 0.00 0.00 0.00 76 1017.8
20260507020943 60 293 11.0 17.0 0.00 0.00 0.00 75 1017.8
20260507015931 60 277 10.0 18.0 0.00 0.00 0.00 75 1017.8
20260507014954 60 280 11.0 20.0 0.00 0.00 0.00 75 1017.8
20260507013938 60 260 14.0 22.0 0.00 0.00 0.00 76 1017.7
20260507012937 61 269 14.0 20.0 0.00 0.00 0.00 76 1017.7
20260507011955 62 265 13.0 18.0 0.00 0.00 0.00 75 1017.7
20260507010932 62 277 11.0 17.0 0.00 0.00 0.00 74 1017.8
20260507005944 62 284 11.0 17.0 0.00 0.00 0.00 74 1017.8
20260507004945 62 286 13.0 17.0 0.00 0.00 0.00 74 1017.8
20260507003928 63 273 13.0 17.0 0.00 0.00 0.00 74 1017.7
20260507002949 63 274 10.0 18.0 0.00 0.00 0.00 74 1017.7
20260507001946 63 277 12.0 18.0 0.00 0.00 0.00 74 1017.7
20260507000949 63 273 12.0 16.0 0.00 0.00 0.00 74 1017.9
20260506235942 63 282 11.0 18.0 0.00 0.00 0.00 74 1017.8
20260506234940 63 277 11.0 17.0 0.00 0.00 0.00 74 1017.8
20260506233939 63 269 13.0 18.0 0.00 0.00 0.00 73 1017.9
20260506232958 63 269 12.0 18.0 0.00 0.00 0.00 74 1017.8
20260506231935 63 279 15.0 19.0 0.00 0.00 0.00 73 1017.8
20260506230940 64 259 14.0 19.0 0.00 0.00 0.00 73 1017.9
20260506225934 64 264 13.0 18.0 0.00 0.00 0.00 73 1018.1
20260506224932 64 265 15.0 18.0 0.00 0.00 0.00 73 1018.1
20260506223931 64 279 13.0 18.0 0.00 0.00 0.00 73 1018.4
20260506222934 64 273 13.0 19.0 0.00 0.00 0.00 72 1018.5
20260506221932 65 290 12.0 17.0 0.00 0.00 0.00 72 1018.5
20260506220931 65 273 13.0 18.0 0.00 0.00 0.00 72 1018.8
20260506215940 65 264 12.0 17.0 0.00 0.00 0.00 71 1018.9
20260506214938 66 275 11.0 16.0 0.00 0.00 0.00 69 1018.9
20260506213941 66 290 11.0 17.0 0.00 0.00 0.00 70 1018.9
20260506212942 66 268 11.0 16.0 0.00 0.00 0.00 69 1018.9
20260506211941 67 268 10.0 15.0 0.00 0.00 0.00 69 1018.9
20260506210938 67 273 9.0 14.0 0.00 0.00 0.00 69 1018.9
20260506205930 67 255 9.0 13.0 0.00 0.00 0.00 69 1019.2
20260506205011 67 265 7.0 11.0 0.00 0.00 0.00 69 1019.2
20260506203929 67 290 4.0 9.0 0.00 0.00 0.00 67 1019.3
20260506202931 67 278 4.0 10.0 0.00 0.00 0.00 67 1019.4
20260506201950 67 257 4.0 7.0 0.00 0.00 0.00 68 1019.4
20260506200933 66 261 3.0 8.0 0.00 0.00 0.00 69 1019.6
20260506195943 66 254 5.0 8.0 0.00 0.00 0.00 70 1019.8
20260506195002 65 244 4.0 8.0 0.00 0.00 0.00 70 1019.8
20260506193959 64 250 4.0 7.0 0.00 0.00 0.00 71 1019.9
20260506192936 64 254 4.0 7.0 0.00 0.00 0.00 71 1020.1
20260506191938 64 249 4.0 7.0 0.00 0.00 0.00 72 1020.1
20260506190939 63 254 5.0 9.0 0.00 0.00 0.00 72 1020.3
20260506185950 63 246 5.0 8.0 0.00 0.00 0.00 72 1020.2
20260506184947 63 232 6.0 9.0 0.00 0.00 0.00 72 1020.2
20260506183932 63 250 6.0 8.0 0.00 0.00 0.00 72 1020.4
20260506182932 63 242 6.0 8.0 0.00 0.00 0.00 72 1020.4
20260506181934 62 238 5.0 8.0 0.00 0.00 0.00 71 1020.4
20260506180931 62 229 5.0 7.0 0.00 0.00 0.00 72 1020.3
20260506175942 62 230 4.0 8.0 0.00 0.00 0.00 72 1020.3
20260506174944 62 230 4.0 7.0 0.00 0.00 0.00 72 1020.3
20260506173942 62 232 4.0 7.0 0.00 0.00 0.00 72 1020.3
20260506172940 62 201 4.0 7.0 0.00 0.00 0.00 72 1020.4
20260506171937 62 215 4.0 6.0 0.00 0.00 0.00 71 1020.4
20260506170943 62 204 2.0 6.0 0.00 0.00 0.00 72 1020.4
20260506170000 61 205 2.0 6.0 0.00 0.00 0.00 72 1020.4
20260506164936 61 198 5.0 7.0 0.00 0.00 0.00 72 1020.4
20260506163935 60 197 3.0 6.0 0.00 0.00 0.00 73 1020.4
20260506162933 60 196 3.0 6.0 0.00 0.00 0.00 73 1020.4
20260506161934 59 196 2.0 6.0 0.00 0.00 0.00 74 1020.4
20260506160934 59 167 1.0 4.0 0.00 0.00 0.00 74 1020.4
20260506155945 59 165 0.0 4.0 0.00 0.00 0.00 74 1020.4
20260506155006 58 159 0.0 4.0 0.00 0.00 0.00 75 1020.4
20260506153943 58 157 3.0 5.0 0.00 0.00 0.00 75 1020.4
20260506152945 58 295 0.0 4.0 0.00 0.00 0.00 75 1020.4
20260506151943 58 290 2.0 4.0 0.00 0.00 0.00 75 1020.4
20260506150942 58 290 0.0 4.0 0.00 0.00 0.00 75 1020.3
20260506150012 59 291 2.0 4.0 0.00 0.00 0.00 75 1020.3
20260506144948 58 291 0.0 0.0 0.00 0.00 0.00 75 1020.1
20260506143929 58 291 0.0 3.0 0.00 0.00 0.00 75 1020.1
20260506142929 58 291 0.0 4.0 0.00 0.00 0.00 75 1019.9
20260506141931 57 291 1.0 4.0 0.00 0.00 0.00 75 1019.9
20260506140929 57 291 0.0 4.0 0.00 0.00 0.00 76 1019.8
20260506135939 57 291 0.0 4.0 0.00 0.00 0.00 76 1019.6
20260506134940 57 291 0.0 5.0 0.00 0.00 0.00 76 1019.6
20260506133940 57 288 0.0 5.0 0.00 0.00 0.00 76 1019.5
20260506132938 57 293 4.0 7.0 0.00 0.00 0.00 76 1019.4
20260506131936 57 293 2.0 6.0 0.00 0.00 0.00 76 1019.4
20260506130941 57 298 2.0 5.0 0.00 0.00 0.00 75 1019.4
20260506125952 57 298 1.0 6.0 0.00 0.00 0.00 75 1019.3
20260506124928 57 301 3.0 6.0 0.00 0.00 0.00 75 1019.3
20260506123929 57 303 4.0 7.0 0.00 0.00 0.00 75 1019.2
20260506122930 57 305 3.0 7.0 0.00 0.00 0.00 75 1019.2
20260506121931 57 305 5.0 7.0 0.00 0.00 0.00 75 1019.2
20260506120950 57 300 1.0 6.0 0.00 0.00 0.00 75 1019.1
20260506115938 57 298 2.0 6.0 0.00 0.00 0.00 75 1019.0
20260506114957 57 298 3.0 7.0 0.00 0.00 0.00 75 1019.0
20260506113934 57 302 4.0 8.0 0.00 0.00 0.00 75 1018.9
20260506112936 57 301 0.0 6.0 0.00 0.00 0.00 76 1018.8
20260506111935 57 303 2.0 6.0 0.00 0.00 0.00 76 1018.8
20260506110933 57 303 2.0 7.0 0.00 0.00 0.00 76 1018.7
20260506110002 57 302 1.0 7.0 0.00 0.00 0.00 75 1018.7
20260506104939 57 301 2.0 8.0 0.00 0.00 0.00 75 1018.7
20260506103941 57 295 2.0 6.0 0.00 0.00 0.00 75 1018.7
20260506102940 57 293 3.0 7.0 0.00 0.00 0.00 76 1018.5
20260506101938 57 294 2.0 8.0 0.00 0.00 0.00 76 1018.5
20260506100937 57 296 5.0 9.0 0.00 0.00 0.00 76 1018.4
20260506095930 57 306 4.0 7.0 0.00 0.01 0.00 76 1018.6
20260506094949 57 305 3.0 6.0 0.00 0.01 0.00 76 1018.6
20260506093948 57 304 1.0 5.0 0.00 0.01 0.00 76 1018.5
20260506092926 57 304 0.0 5.0 0.00 0.01 0.00 76 1018.5
20260506091931 57 304 1.0 4.0 0.00 0.01 0.00 76 1018.5
20260506090932 57 304 2.0 5.0 0.00 0.01 0.00 76 1018.4
20260506085948 57 303 1.0 4.0 0.00 0.05 0.00 76 1018.5
20260506085006 57 303 3.0 6.0 0.00 0.05 0.00 76 1018.5
20260506083945 57 303 1.0 6.0 0.00 0.05 0.00 76 1018.5
20260506083004 57 304 3.0 7.0 0.00 0.05 0.00 75 1018.7
20260506081947 57 292 3.0 6.0 0.00 0.05 0.00 75 1018.7
20260506080944 57 290 1.0 8.0 0.00 0.05 0.00 75 1018.6
20260506072955 57 284 4.0 6.0 0.00 0.10 0.05 76 1018.3
20260506071932 57 282 1.0 6.0 0.00 0.10 0.05 76 1018.3
20260506070933 57 282 4.0 9.0 0.00 0.10 0.05 76 1018.3
20260506061943 57 276 5.0 9.0 0.00 0.12 0.05 76 1017.8
20260506060944 57 277 6.0 9.0 0.00 0.12 0.05 76 1017.9
20260506050943 57 280 5.0 10.0 0.00 0.14 0.05 76 1017.4
20260506044931 58 265 6.0 10.0 0.00 0.15 0.05 76 1017.3
20260506043950 58 263 8.0 12.0 0.00 0.15 0.05 76 1017.2
20260506042934 58 258 8.0 11.0 0.00 0.15 0.05 76 1017.1
20260506041932 58 261 7.0 11.0 0.00 0.15 0.05 76 1017.1
20260506040953 57 282 7.0 10.0 0.00 0.15 0.05 76 1016.8
20260506035941 58 273 4.0 10.0 0.00 0.15 0.05 75 1016.7
20260506033945 58 268 7.0 13.0 0.00 0.15 0.05 75 1016.3
20260506032943 58 252 8.0 12.0 0.00 0.15 0.05 76 1016.2
20260506031944 58 257 8.0 12.0 0.00 0.15 0.05 76 1016.2
20260506031005 58 254 10.0 13.0 0.00 0.15 0.05 76 1015.9
20260506025934 58 256 9.0 13.0 0.00 0.15 0.05 76 1015.9